Year,Month,Day,Hour,Minute,Value (Times are PST for temperature in C)
2012,01,15,00,00,-3.90
2012,01,15,00,01,-3.90
2012,01,15,00,02,-3.90
2012,01,15,00,03,-3.90
2012,01,15,00,04,-3.90
2012,01,15,00,05,-3.90
2012,01,15,00,06,-3.90
2012,01,15,00,07,-3.90
2012,01,15,00,08,-3.90
2012,01,15,00,09,-3.90
2012,01,15,00,10,-3.90
2012,01,15,00,11,-3.90
2012,01,15,00,12,-3.90
2012,01,15,00,13,-3.90
2012,01,15,00,14,-3.90
2012,01,15,00,15,-3.90
2012,01,15,00,16,-3.90
2012,01,15,00,17,-3.80
2012,01,15,00,18,-3.80
2012,01,15,00,19,-3.80
2012,01,15,00,20,-3.80
2012,01,15,00,21,-3.80
2012,01,15,00,22,-3.80
2012,01,15,00,23,-3.80
2012,01,15,00,24,-3.80
2012,01,15,00,25,-3.70
2012,01,15,00,26,-3.70
2012,01,15,00,27,-3.70
2012,01,15,00,28,-3.70
2012,01,15,00,29,-3.70
2012,01,15,00,30,-3.70
2012,01,15,00,31,-3.60
2012,01,15,00,32,-3.60
2012,01,15,00,33,-3.60
2012,01,15,00,34,-3.60
2012,01,15,00,35,-3.60
2012,01,15,00,36,-3.60
2012,01,15,00,37,-3.70
2012,01,15,00,38,-3.70
2012,01,15,00,39,-3.70
2012,01,15,00,40,-3.80
2012,01,15,00,41,-3.80
2012,01,15,00,42,-3.80
2012,01,15,00,43,-3.80
2012,01,15,00,44,-3.80
2012,01,15,00,45,-3.80
2012,01,15,00,46,-3.90
2012,01,15,00,47,-3.90
2012,01,15,00,48,-3.90
2012,01,15,00,49,-3.90
2012,01,15,00,50,-3.90
2012,01,15,00,51,-3.90
2012,01,15,00,52,-3.90
2012,01,15,00,53,-3.90
2012,01,15,00,54,-3.90
2012,01,15,00,55,-3.90
2012,01,15,00,56,-3.90
2012,01,15,00,57,-3.90
2012,01,15,00,58,-3.80
2012,01,15,00,59,-3.80
2012,01,15,01,00,-3.80
2012,01,15,01,01,-3.80
2012,01,15,01,02,-3.80
2012,01,15,01,03,-3.80
2012,01,15,01,04,-3.80
2012,01,15,01,05,-3.80
2012,01,15,01,06,-3.80
2012,01,15,01,07,-3.90
2012,01,15,01,08,-3.90
2012,01,15,01,09,-3.90
2012,01,15,01,10,-3.90
2012,01,15,01,11,-3.90
2012,01,15,01,12,-4.00
2012,01,15,01,13,-4.00
2012,01,15,01,14,-4.00
2012,01,15,01,15,-4.00
2012,01,15,01,16,-4.10
2012,01,15,01,17,-4.10
2012,01,15,01,18,-4.10
2012,01,15,01,19,-4.10
2012,01,15,01,20,-4.10
2012,01,15,01,21,-4.10
2012,01,15,01,22,-4.10
2012,01,15,01,23,-4.10
2012,01,15,01,24,-4.10
2012,01,15,01,25,-4.10
2012,01,15,01,26,-4.10
2012,01,15,01,27,-4.10
2012,01,15,01,28,-4.10
2012,01,15,01,29,-4.20
2012,01,15,01,30,-4.20
2012,01,15,01,31,-4.20
2012,01,15,01,32,-4.20
2012,01,15,01,33,-4.20
2012,01,15,01,34,-4.20
2012,01,15,01,35,-4.20
2012,01,15,01,36,-4.20
2012,01,15,01,37,-4.20
2012,01,15,01,38,-4.10
2012,01,15,01,39,-4.10
2012,01,15,01,40,-4.10
2012,01,15,01,41,-4.10
2012,01,15,01,42,-4.10
2012,01,15,01,43,-4.10
2012,01,15,01,44,-4.10
2012,01,15,01,45,-4.10
2012,01,15,01,46,-4.10
2012,01,15,01,47,-4.20
2012,01,15,01,48,-4.20
2012,01,15,01,49,-4.20
2012,01,15,01,50,-4.20
2012,01,15,01,51,-4.20
2012,01,15,01,52,-4.10
2012,01,15,01,53,-4.10
2012,01,15,01,54,-4.10
2012,01,15,01,55,-4.10
2012,01,15,01,56,-4.10
2012,01,15,01,57,-4.10
2012,01,15,01,58,-4.10
2012,01,15,01,59,-4.10
2012,01,15,02,00,-4.10
2012,01,15,02,01,-4.10
2012,01,15,02,02,-4.00
2012,01,15,02,03,-4.00
2012,01,15,02,04,-4.00
2012,01,15,02,05,-4.00
2012,01,15,02,06,-4.00
2012,01,15,02,07,-4.00
2012,01,15,02,08,-4.00
2012,01,15,02,09,-4.00
2012,01,15,02,10,-4.00
2012,01,15,02,11,-4.00
2012,01,15,02,12,-4.00
2012,01,15,02,13,-3.90
2012,01,15,02,14,-3.90
2012,01,15,02,15,-3.90
2012,01,15,02,16,-3.90
2012,01,15,02,17,-3.90
2012,01,15,02,18,-3.90
2012,01,15,02,19,-3.90
2012,01,15,02,20,-3.90
2012,01,15,02,21,-3.90
2012,01,15,02,22,-3.90
2012,01,15,02,23,-3.90
2012,01,15,02,24,-3.90
2012,01,15,02,25,-3.90
2012,01,15,02,26,-3.90
2012,01,15,02,27,-3.90
2012,01,15,02,28,-3.80
2012,01,15,02,29,-3.80
2012,01,15,02,30,-3.80
2012,01,15,02,31,-3.80
2012,01,15,02,32,-3.80
2012,01,15,02,33,-3.80
2012,01,15,02,34,-3.80
2012,01,15,02,35,-3.80
2012,01,15,02,36,-3.80
2012,01,15,02,37,-3.70
2012,01,15,02,38,-3.70
2012,01,15,02,39,-3.70
2012,01,15,02,40,-3.70
2012,01,15,02,41,-3.70
2012,01,15,02,42,-3.70
2012,01,15,02,43,-3.70
2012,01,15,02,44,-3.70
2012,01,15,02,45,-3.70
2012,01,15,02,46,-3.70
2012,01,15,02,47,-3.70
2012,01,15,02,48,-3.70
2012,01,15,02,49,-3.70
2012,01,15,02,50,-3.70
2012,01,15,02,51,-3.70
2012,01,15,02,52,-3.70
2012,01,15,02,53,-3.70
2012,01,15,02,54,-3.80
2012,01,15,02,55,-3.80
2012,01,15,02,56,-3.80
2012,01,15,02,57,-3.80
2012,01,15,02,58,-3.80
2012,01,15,02,59,-3.80
2012,01,15,03,00,-3.80
2012,01,15,03,01,-3.80
2012,01,15,03,02,-3.80
2012,01,15,03,06,-3.70
2012,01,15,03,07,-3.70
2012,01,15,03,08,-3.70
2012,01,15,03,09,-3.70
2012,01,15,03,10,-3.70
2012,01,15,03,11,-3.70
2012,01,15,03,12,-3.70
2012,01,15,03,13,-3.70
2012,01,15,03,14,-3.70
2012,01,15,03,15,-3.70
2012,01,15,03,16,-3.70
2012,01,15,03,17,-3.80
2012,01,15,03,18,-3.80
2012,01,15,03,19,-3.80
2012,01,15,03,20,-3.80
2012,01,15,03,21,-3.90
2012,01,15,03,22,-3.90
2012,01,15,03,23,-3.90
2012,01,15,03,24,-4.00
2012,01,15,03,25,-4.00
2012,01,15,03,26,-4.10
2012,01,15,03,27,-4.10
2012,01,15,03,28,-4.10
2012,01,15,03,29,-4.20
2012,01,15,03,30,-4.20
2012,01,15,03,31,-4.20
2012,01,15,03,32,-4.20
2012,01,15,03,33,-4.20
2012,01,15,03,34,-4.20
2012,01,15,03,35,-4.20
2012,01,15,03,36,-4.20
2012,01,15,03,37,-4.20
2012,01,15,03,38,-4.20
2012,01,15,03,39,-4.20
2012,01,15,03,40,-4.20
2012,01,15,03,41,-4.10
2012,01,15,03,42,-4.10
2012,01,15,03,43,-4.10
2012,01,15,03,44,-4.10
2012,01,15,03,45,-4.10
2012,01,15,03,46,-4.20
2012,01,15,03,47,-4.20
2012,01,15,03,48,-4.20
2012,01,15,03,49,-4.20
2012,01,15,03,50,-4.30
2012,01,15,03,51,-4.30
2012,01,15,03,52,-4.30
2012,01,15,03,53,-4.30
2012,01,15,03,54,-4.30
2012,01,15,03,55,-4.40
2012,01,15,03,56,-4.30
2012,01,15,03,57,-4.30
2012,01,15,03,58,-4.30
2012,01,15,03,59,-4.30
2012,01,15,04,00,-4.30
2012,01,15,04,01,-4.30
2012,01,15,04,02,-4.30
2012,01,15,04,03,-4.30
2012,01,15,04,04,-4.30
2012,01,15,04,05,-4.30
2012,01,15,04,06,-4.30
2012,01,15,04,07,-4.30
2012,01,15,04,08,-4.30
2012,01,15,04,09,-4.30
2012,01,15,04,10,-4.30
2012,01,15,04,11,-4.30
2012,01,15,04,12,-4.30
2012,01,15,04,13,-4.30
2012,01,15,04,14,-4.30
2012,01,15,04,15,-4.40
2012,01,15,04,16,-4.40
2012,01,15,04,17,-4.40
2012,01,15,04,18,-4.40
2012,01,15,04,19,-4.40
2012,01,15,04,20,-4.40
2012,01,15,04,21,-4.40
2012,01,15,04,22,-4.50
2012,01,15,04,23,-4.50
2012,01,15,04,24,-4.50
2012,01,15,04,25,-4.50
2012,01,15,04,26,-4.50
2012,01,15,04,27,-4.50
2012,01,15,04,28,-4.50
2012,01,15,04,29,-4.50
2012,01,15,04,30,-4.50
2012,01,15,04,31,-4.50
2012,01,15,04,32,-4.50
2012,01,15,04,33,-4.50
2012,01,15,04,34,-4.50
2012,01,15,04,35,-4.50
2012,01,15,04,36,-4.50
2012,01,15,04,37,-4.50
2012,01,15,04,38,-4.50
2012,01,15,04,39,-4.50
2012,01,15,04,40,-4.50
2012,01,15,04,41,-4.50
2012,01,15,04,42,-4.50
2012,01,15,04,43,-4.50
2012,01,15,04,44,-4.50
2012,01,15,04,45,-4.50
2012,01,15,04,46,-4.50
2012,01,15,04,47,-4.50
2012,01,15,04,48,-4.50
2012,01,15,04,49,-4.50
2012,01,15,04,50,-4.50
2012,01,15,04,51,-4.50
2012,01,15,04,52,-4.50
2012,01,15,04,53,-4.60
2012,01,15,04,54,-4.60
2012,01,15,04,55,-4.60
2012,01,15,04,56,-4.60
2012,01,15,04,57,-4.70
2012,01,15,04,58,-4.70
2012,01,15,04,59,-4.70
2012,01,15,05,00,-4.70
2012,01,15,05,01,-4.70
2012,01,15,05,02,-4.70
2012,01,15,05,03,-4.70
2012,01,15,05,04,-4.70
2012,01,15,05,05,-4.70
2012,01,15,05,06,-4.70
2012,01,15,05,07,-4.70
2012,01,15,05,08,-4.70
2012,01,15,05,09,-4.70
2012,01,15,05,10,-4.70
2012,01,15,05,11,-4.70
2012,01,15,05,12,-4.70
2012,01,15,05,13,-4.70
2012,01,15,05,14,-4.70
2012,01,15,05,15,-4.70
2012,01,15,05,16,-4.70
2012,01,15,05,17,-4.70
2012,01,15,05,18,-4.70
2012,01,15,05,19,-4.70
2012,01,15,05,20,-4.70
2012,01,15,05,21,-4.70
2012,01,15,05,22,-4.70
2012,01,15,05,23,-4.70
2012,01,15,05,24,-4.70
2012,01,15,05,25,-4.70
2012,01,15,05,26,-4.80
2012,01,15,05,27,-4.70
2012,01,15,05,28,-4.80
2012,01,15,05,29,-4.70
2012,01,15,05,30,-4.70
2012,01,15,05,31,-4.70
2012,01,15,05,32,-4.70
2012,01,15,05,33,-4.70
2012,01,15,05,34,-4.70
2012,01,15,05,35,-4.70
2012,01,15,05,36,-4.70
2012,01,15,05,37,-4.70
2012,01,15,05,38,-4.70
2012,01,15,05,39,-4.70
2012,01,15,05,40,-4.70
2012,01,15,05,41,-4.70
2012,01,15,05,42,-4.70
2012,01,15,05,43,-4.70
2012,01,15,05,44,-4.80
2012,01,15,05,45,-4.80
2012,01,15,05,46,-4.80
2012,01,15,05,47,-4.80
2012,01,15,05,48,-4.80
2012,01,15,05,49,-4.90
2012,01,15,05,50,-4.80
2012,01,15,05,51,-4.80
2012,01,15,05,52,-4.80
2012,01,15,05,53,-4.80
2012,01,15,05,54,-4.80
2012,01,15,05,55,-4.80
2012,01,15,05,56,-4.80
2012,01,15,05,57,-4.90
2012,01,15,05,58,-4.90
2012,01,15,05,59,-4.90
2012,01,15,06,00,-4.90
2012,01,15,06,01,-4.90
2012,01,15,06,02,-4.90
2012,01,15,06,03,-4.90
2012,01,15,06,04,-4.90
2012,01,15,06,05,-4.90
2012,01,15,06,06,-4.90
2012,01,15,06,07,-4.90
2012,01,15,06,08,-4.90
2012,01,15,06,09,-4.90
2012,01,15,06,10,-4.90
2012,01,15,06,11,-4.90
2012,01,15,06,12,-4.90
2012,01,15,06,13,-4.90
2012,01,15,06,14,-4.90
2012,01,15,06,15,-4.90
2012,01,15,06,16,-5.00
2012,01,15,06,17,-5.00
2012,01,15,06,18,-5.00
2012,01,15,06,19,-5.10
2012,01,15,06,20,-5.10
2012,01,15,06,21,-5.10
2012,01,15,06,22,-5.10
2012,01,15,06,23,-5.10
2012,01,15,06,24,-5.10
2012,01,15,06,25,-5.10
2012,01,15,06,26,-5.20
2012,01,15,06,27,-5.20
2012,01,15,06,28,-5.20
2012,01,15,06,29,-5.20
2012,01,15,06,30,-5.20
2012,01,15,06,31,-5.20
2012,01,15,06,32,-5.20
2012,01,15,06,33,-5.20
2012,01,15,06,34,-5.20
2012,01,15,06,35,-5.10
2012,01,15,06,36,-5.10
2012,01,15,06,37,-5.10
2012,01,15,06,38,-5.10
2012,01,15,06,39,-5.10
2012,01,15,06,40,-5.10
2012,01,15,06,41,-5.10
2012,01,15,06,42,-5.10
2012,01,15,06,43,-5.10
2012,01,15,06,44,-5.10
2012,01,15,06,45,-5.10
2012,01,15,06,46,-5.10
2012,01,15,06,47,-5.10
2012,01,15,06,48,-5.00
2012,01,15,06,49,-5.00
2012,01,15,06,50,-5.00
2012,01,15,06,51,-5.00
2012,01,15,06,52,-5.00
2012,01,15,06,53,-5.00
2012,01,15,06,54,-5.00
2012,01,15,06,55,-5.00
2012,01,15,06,56,-5.00
2012,01,15,06,57,-4.90
2012,01,15,06,58,-4.90
2012,01,15,06,59,-4.90
2012,01,15,07,00,-4.90
2012,01,15,07,01,-5.00
2012,01,15,07,02,-5.00
2012,01,15,07,03,-5.00
2012,01,15,07,04,-5.00
2012,01,15,07,05,-5.00
2012,01,15,07,06,-5.00
2012,01,15,07,07,-5.00
2012,01,15,07,08,-5.00
2012,01,15,07,09,-5.00
2012,01,15,07,10,-5.00
2012,01,15,07,11,-5.00
2012,01,15,07,12,-5.00
2012,01,15,07,13,-5.00
2012,01,15,07,14,-5.00
2012,01,15,07,15,-5.00
2012,01,15,07,16,-5.00
2012,01,15,07,17,-5.00
2012,01,15,07,18,-5.00
2012,01,15,07,19,-5.00
2012,01,15,07,20,-5.00
2012,01,15,07,21,-5.00
2012,01,15,07,22,-5.00
2012,01,15,07,23,-4.90
2012,01,15,07,24,-4.90
2012,01,15,07,25,-4.90
2012,01,15,07,26,-4.90
2012,01,15,07,27,-4.90
2012,01,15,07,28,-4.80
2012,01,15,07,29,-4.80
2012,01,15,07,30,-4.80
2012,01,15,07,31,-4.80
2012,01,15,07,32,-4.80
2012,01,15,07,33,-4.80
2012,01,15,07,34,-4.70
2012,01,15,07,35,-4.70
2012,01,15,07,36,-4.70
2012,01,15,07,37,-4.60
2012,01,15,07,38,-4.60
2012,01,15,07,39,-4.60
2012,01,15,07,40,-4.60
2012,01,15,07,41,-4.50
2012,01,15,07,42,-4.50
2012,01,15,07,43,-4.50
2012,01,15,07,44,-4.40
2012,01,15,07,45,-4.40
2012,01,15,07,46,-4.40
2012,01,15,07,47,-4.30
2012,01,15,07,48,-4.30
2012,01,15,07,49,-4.30
2012,01,15,07,50,-4.30
2012,01,15,07,51,-4.30
2012,01,15,07,52,-4.20
2012,01,15,07,53,-4.20
2012,01,15,07,54,-4.20
2012,01,15,07,55,-4.20
2012,01,15,07,56,-4.20
2012,01,15,07,57,-4.10
2012,01,15,07,58,-4.10
2012,01,15,07,59,-4.10
2012,01,15,08,00,-4.10
2012,01,15,08,01,-4.00
2012,01,15,08,02,-4.00
2012,01,15,08,03,-4.00
2012,01,15,08,04,-4.00
2012,01,15,08,05,-3.90
2012,01,15,08,06,-3.90
2012,01,15,08,07,-3.90
2012,01,15,08,08,-3.90
2012,01,15,08,09,-3.80
2012,01,15,08,10,-3.80
2012,01,15,08,11,-3.80
2012,01,15,08,12,-3.80
2012,01,15,08,13,-3.80
2012,01,15,08,14,-3.80
2012,01,15,08,15,-3.80
2012,01,15,08,16,-3.70
2012,01,15,08,17,-3.70
2012,01,15,08,18,-3.70
2012,01,15,08,19,-3.70
2012,01,15,08,20,-3.70
2012,01,15,08,21,-3.70
2012,01,15,08,22,-3.60
2012,01,15,08,23,-3.60
2012,01,15,08,24,-3.60
2012,01,15,08,25,-3.60
2012,01,15,08,26,-3.60
2012,01,15,08,27,-3.60
2012,01,15,08,28,-3.60
2012,01,15,08,29,-3.50
2012,01,15,08,30,-3.50
2012,01,15,08,31,-3.50
2012,01,15,08,32,-3.40
2012,01,15,08,33,-3.40
2012,01,15,08,34,-3.40
2012,01,15,08,35,-3.40
2012,01,15,08,36,-3.40
2012,01,15,08,37,-3.40
2012,01,15,08,38,-3.40
2012,01,15,08,39,-3.30
2012,01,15,08,40,-3.30
2012,01,15,08,41,-3.30
2012,01,15,08,42,-3.30
2012,01,15,08,43,-3.30
2012,01,15,08,44,-3.20
2012,01,15,08,45,-3.20
2012,01,15,08,46,-3.20
2012,01,15,08,47,-3.20
2012,01,15,08,48,-3.20
2012,01,15,08,49,-3.20
2012,01,15,08,50,-3.20
2012,01,15,08,51,-3.20
2012,01,15,08,52,-3.10
2012,01,15,08,53,-3.10
2012,01,15,08,54,-3.10
2012,01,15,08,55,-3.10
2012,01,15,08,56,-3.10
2012,01,15,08,57,-3.10
2012,01,15,08,58,-3.00
2012,01,15,08,59,-3.00
2012,01,15,09,00,-3.00
2012,01,15,09,01,-3.00
2012,01,15,09,02,-3.00
2012,01,15,09,03,-2.90
2012,01,15,09,04,-2.90
2012,01,15,09,05,-2.90
2012,01,15,09,06,-2.90
2012,01,15,09,07,-2.90
2012,01,15,09,08,-2.90
2012,01,15,09,09,-2.90
2012,01,15,09,10,-2.80
2012,01,15,09,11,-2.80
2012,01,15,09,12,-2.80
2012,01,15,09,13,-2.80
2012,01,15,09,14,-2.80
2012,01,15,09,15,-2.70
2012,01,15,09,16,-2.70
2012,01,15,09,17,-2.70
2012,01,15,09,18,-2.70
2012,01,15,09,19,-2.60
2012,01,15,09,20,-2.60
2012,01,15,09,21,-2.60
2012,01,15,09,22,-2.60
2012,01,15,09,23,-2.60
2012,01,15,09,24,-2.60
2012,01,15,09,25,-2.50
2012,01,15,09,26,-2.50
2012,01,15,09,27,-2.50
2012,01,15,09,28,-2.40
2012,01,15,09,29,-2.40
2012,01,15,09,30,-2.40
2012,01,15,09,31,-2.40
2012,01,15,09,32,-2.40
2012,01,15,09,33,-2.30
2012,01,15,09,34,-2.30
2012,01,15,09,35,-2.30
2012,01,15,09,36,-2.30
2012,01,15,09,37,-2.30
2012,01,15,09,38,-2.20
2012,01,15,09,39,-2.20
2012,01,15,09,40,-2.20
2012,01,15,09,41,-2.20
2012,01,15,09,42,-2.10
2012,01,15,09,43,-2.10
2012,01,15,09,44,-2.10
2012,01,15,09,45,-2.10
2012,01,15,09,46,-2.00
2012,01,15,09,47,-2.00
2012,01,15,09,48,-1.90
2012,01,15,09,49,-1.90
2012,01,15,09,50,-1.80
2012,01,15,09,51,-1.80
2012,01,15,09,52,-1.80
2012,01,15,09,53,-1.80
2012,01,15,09,54,-1.70
2012,01,15,09,55,-1.70
2012,01,15,09,56,-1.60
2012,01,15,09,57,-1.60
2012,01,15,09,58,-1.60
2012,01,15,09,59,-1.50
2012,01,15,10,00,-1.40
2012,01,15,10,01,-1.40
2012,01,15,10,02,-1.40
2012,01,15,10,03,-1.30
2012,01,15,10,04,-1.30
2012,01,15,10,05,-1.30
2012,01,15,10,06,-1.30
2012,01,15,10,07,-1.30
2012,01,15,10,08,-1.20
2012,01,15,10,09,-1.20
2012,01,15,10,10,-1.20
2012,01,15,10,11,-1.20
2012,01,15,10,12,-1.20
2012,01,15,10,13,-1.10
2012,01,15,10,14,-1.10
2012,01,15,10,15,-1.10
2012,01,15,10,16,-1.10
2012,01,15,10,17,-1.10
2012,01,15,10,18,-1.00
2012,01,15,10,19,-1.00
2012,01,15,10,20,-1.00
2012,01,15,10,21,-1.00
2012,01,15,10,22,-0.90
2012,01,15,10,23,-0.90
2012,01,15,10,24,-0.90
2012,01,15,10,25,-0.90
2012,01,15,10,26,-0.90
2012,01,15,10,27,-0.90
2012,01,15,10,28,-0.80
2012,01,15,10,29,-0.80
2012,01,15,10,30,-0.80
2012,01,15,10,31,-0.80
2012,01,15,10,32,-0.80
2012,01,15,10,33,-0.80
2012,01,15,10,34,-0.70
2012,01,15,10,35,-0.70
2012,01,15,10,36,-0.70
2012,01,15,10,37,-0.70
2012,01,15,10,38,-0.70
2012,01,15,10,39,-0.60
2012,01,15,10,40,-0.60
2012,01,15,10,41,-0.60
2012,01,15,10,42,-0.50
2012,01,15,10,43,-0.50
2012,01,15,10,44,-0.50
2012,01,15,10,45,-0.40
2012,01,15,10,46,-0.40
2012,01,15,10,47,-0.40
2012,01,15,10,48,-0.30
2012,01,15,10,49,-0.30
2012,01,15,10,50,-0.30
2012,01,15,10,51,-0.20
2012,01,15,10,52,-0.20
2012,01,15,10,53,-0.20
2012,01,15,10,54,-0.10
2012,01,15,10,55,-0.10
2012,01,15,10,56,-0.10
2012,01,15,10,57,0.00
2012,01,15,10,58,0.00
2012,01,15,10,59,0.00
2012,01,15,11,00,0.10
2012,01,15,11,01,0.10
2012,01,15,11,02,0.10
2012,01,15,11,03,0.10
2012,01,15,11,04,0.20
2012,01,15,11,05,0.20
2012,01,15,11,06,0.20
2012,01,15,11,07,0.20
2012,01,15,11,08,0.20
2012,01,15,11,09,0.20
2012,01,15,11,10,0.20
2012,01,15,11,11,0.30
2012,01,15,11,12,0.40
2012,01,15,11,13,0.40
2012,01,15,11,14,0.50
2012,01,15,11,15,0.60
2012,01,15,11,16,0.70
2012,01,15,11,17,0.70
2012,01,15,11,18,0.80
2012,01,15,11,19,0.90
2012,01,15,11,20,1.10
2012,01,15,11,21,1.10
2012,01,15,11,22,1.20
2012,01,15,11,23,1.30
2012,01,15,11,24,1.30
2012,01,15,11,25,1.30
2012,01,15,11,26,1.40
2012,01,15,11,27,1.40
2012,01,15,11,28,1.50
2012,01,15,11,29,1.50
2012,01,15,11,30,1.50
2012,01,15,11,31,1.60
2012,01,15,11,32,1.60
2012,01,15,11,33,1.60
2012,01,15,11,34,1.60
2012,01,15,11,35,1.70
2012,01,15,11,36,1.70
2012,01,15,11,37,1.70
2012,01,15,11,38,1.70
2012,01,15,11,39,1.70
2012,01,15,11,40,1.70
2012,01,15,11,41,1.70
2012,01,15,11,42,1.70
2012,01,15,11,43,1.70
2012,01,15,11,44,1.70
2012,01,15,11,45,1.70
2012,01,15,11,46,1.70
2012,01,15,11,47,1.60
2012,01,15,11,48,1.60
2012,01,15,11,49,1.60
2012,01,15,11,50,1.50
2012,01,15,11,51,1.40
2012,01,15,11,52,1.40
2012,01,15,11,53,1.30
2012,01,15,11,54,1.30
2012,01,15,11,55,1.30
2012,01,15,11,56,1.40
2012,01,15,11,57,1.50
2012,01,15,11,58,1.50
2012,01,15,11,59,1.60
2012,01,15,12,00,1.70
2012,01,15,12,01,1.70
2012,01,15,12,02,1.80
2012,01,15,12,03,1.80
2012,01,15,12,04,1.90
2012,01,15,12,05,1.90
2012,01,15,12,06,1.90
2012,01,15,12,07,1.90
2012,01,15,12,08,1.90
2012,01,15,12,09,1.90
2012,01,15,12,10,1.90
2012,01,15,12,11,1.80
2012,01,15,12,12,1.80
2012,01,15,12,13,1.80
2012,01,15,12,14,1.70
2012,01,15,12,15,1.70
2012,01,15,12,16,1.60
2012,01,15,12,17,1.60
2012,01,15,12,18,1.60
2012,01,15,12,19,1.60
2012,01,15,12,20,1.60
2012,01,15,12,21,1.70
2012,01,15,12,22,1.70
2012,01,15,12,23,1.80
2012,01,15,12,24,1.90
2012,01,15,12,25,2.00
2012,01,15,12,26,2.10
2012,01,15,12,27,2.10
2012,01,15,12,28,2.20
2012,01,15,12,29,2.30
2012,01,15,12,30,2.30
2012,01,15,12,31,2.40
2012,01,15,12,32,2.40
2012,01,15,12,33,2.50
2012,01,15,12,34,2.50
2012,01,15,12,35,2.60
2012,01,15,12,36,2.60
2012,01,15,12,37,2.60
2012,01,15,12,38,2.70
2012,01,15,12,39,2.70
2012,01,15,12,40,2.70
2012,01,15,12,41,2.60
2012,01,15,12,42,2.60
2012,01,15,12,43,2.60
2012,01,15,12,44,2.60
2012,01,15,12,45,2.70
2012,01,15,12,46,2.70
2012,01,15,12,47,2.70
2012,01,15,12,48,2.70
2012,01,15,12,49,2.70
2012,01,15,12,50,2.70
2012,01,15,12,51,2.70
2012,01,15,12,52,2.70
2012,01,15,12,53,2.80
2012,01,15,12,54,2.80
2012,01,15,12,55,2.80
2012,01,15,12,56,2.80
2012,01,15,12,57,2.90
2012,01,15,12,58,2.90
2012,01,15,12,59,3.00
2012,01,15,13,00,3.10
2012,01,15,13,01,3.10
2012,01,15,13,02,3.00
2012,01,15,13,03,3.00
2012,01,15,13,04,2.90
2012,01,15,13,05,2.90
2012,01,15,13,06,2.80
2012,01,15,13,07,2.80
2012,01,15,13,08,2.70
2012,01,15,13,09,2.70
2012,01,15,13,10,2.70
2012,01,15,13,11,2.60
2012,01,15,13,12,2.50
2012,01,15,13,13,2.50
2012,01,15,13,14,2.40
2012,01,15,13,15,2.30
2012,01,15,13,16,2.20
2012,01,15,13,17,2.20
2012,01,15,13,18,2.10
2012,01,15,13,19,2.00
2012,01,15,13,20,2.00
2012,01,15,13,21,1.90
2012,01,15,13,22,1.90
2012,01,15,13,23,1.80
2012,01,15,13,24,1.80
2012,01,15,13,25,1.80
2012,01,15,13,26,1.80
2012,01,15,13,27,1.80
2012,01,15,13,28,1.80
2012,01,15,13,29,1.80
2012,01,15,13,30,1.80
2012,01,15,13,31,1.80
2012,01,15,13,32,1.80
2012,01,15,13,33,1.80
2012,01,15,13,34,1.80
2012,01,15,13,35,1.80
2012,01,15,13,36,1.80
2012,01,15,13,37,1.70
2012,01,15,13,38,1.70
2012,01,15,13,39,1.60
2012,01,15,13,40,1.60
2012,01,15,13,41,1.50
2012,01,15,13,42,1.40
2012,01,15,13,43,1.30
2012,01,15,13,44,1.30
2012,01,15,13,45,1.30
2012,01,15,13,46,1.30
2012,01,15,13,47,1.30
2012,01,15,13,48,1.20
2012,01,15,13,49,1.20
2012,01,15,13,50,1.20
2012,01,15,13,51,1.20
2012,01,15,13,52,1.20
2012,01,15,13,53,1.30
2012,01,15,13,54,1.30
2012,01,15,13,55,1.30
2012,01,15,13,56,1.30
2012,01,15,13,57,1.30
2012,01,15,13,58,1.30
2012,01,15,13,59,1.20
2012,01,15,14,00,1.20
2012,01,15,14,01,1.10
2012,01,15,14,02,1.10
2012,01,15,14,03,1.00
2012,01,15,14,04,0.90
2012,01,15,14,05,0.90
2012,01,15,14,06,0.90
2012,01,15,14,07,0.90
2012,01,15,14,08,0.80
2012,01,15,14,09,0.80
2012,01,15,14,10,0.80
2012,01,15,14,11,0.80
2012,01,15,14,12,0.70
2012,01,15,14,13,0.60
2012,01,15,14,14,0.60
2012,01,15,14,15,0.60
2012,01,15,14,16,0.60
2012,01,15,14,17,0.60
2012,01,15,14,18,0.50
2012,01,15,14,19,0.60
2012,01,15,14,20,0.60
2012,01,15,14,21,0.60
2012,01,15,14,22,0.60
2012,01,15,14,23,0.50
2012,01,15,14,24,0.50
2012,01,15,14,25,0.50
2012,01,15,14,26,0.50
2012,01,15,14,27,0.50
2012,01,15,14,28,0.50
2012,01,15,14,29,0.50
2012,01,15,14,30,0.50
2012,01,15,14,31,0.60
2012,01,15,14,32,0.60
2012,01,15,14,33,0.60
2012,01,15,14,34,0.60
2012,01,15,14,35,0.60
2012,01,15,14,36,0.60
2012,01,15,14,37,0.60
2012,01,15,14,38,0.60
2012,01,15,14,39,0.50
2012,01,15,14,40,0.50
2012,01,15,14,41,0.40
2012,01,15,14,42,0.40
2012,01,15,14,43,0.40
2012,01,15,14,44,0.40
2012,01,15,14,45,0.40
2012,01,15,14,46,0.40
2012,01,15,14,47,0.30
2012,01,15,14,48,0.30
2012,01,15,14,49,0.30
2012,01,15,14,50,0.30
2012,01,15,14,51,0.30
2012,01,15,14,52,0.30
2012,01,15,14,53,0.40
2012,01,15,14,54,0.40
2012,01,15,14,55,0.40
2012,01,15,14,56,0.50
2012,01,15,14,57,0.50
2012,01,15,14,58,0.60
2012,01,15,14,59,0.60
2012,01,15,15,00,0.60
2012,01,15,15,01,0.60
2012,01,15,15,02,0.60
2012,01,15,15,03,0.60
2012,01,15,15,04,0.60
2012,01,15,15,05,0.60
2012,01,15,15,06,0.60
2012,01,15,15,07,0.70
2012,01,15,15,08,0.70
2012,01,15,15,09,0.70
2012,01,15,15,10,0.70
2012,01,15,15,11,0.70
2012,01,15,15,12,0.70
2012,01,15,15,13,0.70
2012,01,15,15,14,0.70
2012,01,15,15,15,0.70
2012,01,15,15,16,0.60
2012,01,15,15,17,0.60
2012,01,15,15,18,0.60
2012,01,15,15,19,0.60
2012,01,15,15,20,0.60
2012,01,15,15,21,0.60
2012,01,15,15,22,0.60
2012,01,15,15,23,0.50
2012,01,15,15,24,0.50
2012,01,15,15,25,0.50
2012,01,15,15,26,0.40
2012,01,15,15,27,0.40
2012,01,15,15,28,0.40
2012,01,15,15,29,0.40
2012,01,15,15,30,0.40
2012,01,15,15,31,0.30
2012,01,15,15,32,0.30
2012,01,15,15,33,0.30
2012,01,15,15,34,0.30
2012,01,15,15,35,0.20
2012,01,15,15,36,0.20
2012,01,15,15,37,0.20
2012,01,15,15,38,0.20
2012,01,15,15,39,0.20
2012,01,15,15,40,0.20
2012,01,15,15,41,0.10
2012,01,15,15,42,0.10
2012,01,15,15,43,0.10
2012,01,15,15,44,0.10
2012,01,15,15,45,0.10
2012,01,15,15,46,0.10
2012,01,15,15,47,0.10
2012,01,15,15,48,0.10
2012,01,15,15,49,0.10
2012,01,15,15,50,0.10
2012,01,15,15,51,0.10
2012,01,15,15,52,0.10
2012,01,15,15,53,0.10
2012,01,15,15,54,0.00
2012,01,15,15,55,0.00
2012,01,15,15,56,0.00
2012,01,15,15,57,0.00
2012,01,15,15,58,0.00
2012,01,15,15,59,0.00
2012,01,15,16,00,-0.10
2012,01,15,16,01,-0.10
2012,01,15,16,02,-0.10
2012,01,15,16,03,-0.10
2012,01,15,16,04,-0.10
2012,01,15,16,05,-0.10
2012,01,15,16,06,-0.10
2012,01,15,16,07,-0.10
2012,01,15,16,08,-0.10
2012,01,15,16,09,-0.10
2012,01,15,16,10,-0.10
2012,01,15,16,11,-0.10
2012,01,15,16,12,-0.10
2012,01,15,16,13,-0.10
2012,01,15,16,14,-0.10
2012,01,15,16,15,-0.10
2012,01,15,16,16,-0.10
2012,01,15,16,17,-0.10
2012,01,15,16,18,-0.10
2012,01,15,16,19,-0.10
2012,01,15,16,20,-0.10
2012,01,15,16,21,-0.20
2012,01,15,16,22,-0.20
2012,01,15,16,23,-0.20
2012,01,15,16,24,-0.20
2012,01,15,16,25,-0.20
2012,01,15,16,26,-0.30
2012,01,15,16,27,-0.30
2012,01,15,16,28,-0.30
2012,01,15,16,29,-0.30
2012,01,15,16,30,-0.30
2012,01,15,16,31,-0.40
2012,01,15,16,32,-0.40
2012,01,15,16,33,-0.40
2012,01,15,16,34,-0.40
2012,01,15,16,35,-0.50
2012,01,15,16,36,-0.50
2012,01,15,16,37,-0.50
2012,01,15,16,38,-0.60
2012,01,15,16,39,-0.60
2012,01,15,16,40,-0.60
2012,01,15,16,41,-0.70
2012,01,15,16,42,-0.70
2012,01,15,16,43,-0.70
2012,01,15,16,44,-0.70
2012,01,15,16,45,-0.80
2012,01,15,16,46,-0.80
2012,01,15,16,47,-0.80
2012,01,15,16,48,-0.80
2012,01,15,16,49,-0.80
2012,01,15,16,50,-0.80
2012,01,15,16,51,-0.80
2012,01,15,16,52,-0.80
2012,01,15,16,53,-0.90
2012,01,15,16,54,-0.90
2012,01,15,16,55,-0.90
2012,01,15,16,56,-0.90
2012,01,15,16,57,-0.90
2012,01,15,16,58,-0.90
2012,01,15,16,59,-0.90
2012,01,15,17,00,-1.00
2012,01,15,17,01,-1.00
2012,01,15,17,02,-1.00
2012,01,15,17,03,-1.10
2012,01,15,17,04,-1.10
2012,01,15,17,05,-1.10
2012,01,15,17,06,-1.10
2012,01,15,17,07,-1.10
2012,01,15,17,08,-1.20
2012,01,15,17,09,-1.20
2012,01,15,17,10,-1.20
2012,01,15,17,11,-1.30
2012,01,15,17,12,-1.30
2012,01,15,17,13,-1.30
2012,01,15,17,14,-1.40
2012,01,15,17,15,-1.40
2012,01,15,17,16,-1.40
2012,01,15,17,17,-1.40
2012,01,15,17,18,-1.40
2012,01,15,17,19,-1.40
2012,01,15,17,20,-1.40
2012,01,15,17,21,-1.50
2012,01,15,17,22,-1.50
2012,01,15,17,23,-1.50
2012,01,15,17,24,-1.50
2012,01,15,17,25,-1.60
2012,01,15,17,26,-1.60
2012,01,15,17,27,-1.60
2012,01,15,17,28,-1.60
2012,01,15,17,29,-1.60
2012,01,15,17,30,-1.60
2012,01,15,17,31,-1.60
2012,01,15,17,32,-1.60
2012,01,15,17,33,-1.60
2012,01,15,17,34,-1.60
2012,01,15,17,35,-1.60